Home > Weather > Saint-Petersburg > Past weeks

Flag for Russia Weather for the Past 2 Weeks in Saint-Petersburg, Russia

Now
36 °F

Overcast.


Feels Like: 27 °F
Forecast: 34 / 41 °F
Wind: 13 mph from South

Location: St. Petersburg

Current Time: Feb 9, 2016 at 9:19:31 AM

Latest Report: Feb 9, 2016 at 8:30 AM


Visibility: N/A

Pressure: 29.45 "Hg

Humidity: 87%

Dew point: 32 °F

Location of Saint-PetersburgLocation

Historic Weather in Saint-Petersburg — Graph

°F

Saint-Petersburg Temperature Yesterday

Maximum temperature yesterday: 36 °F (at 12:00 AM)
Minimum temperature yesterday: 32 °F (at 4:00 AM)
Average temperature yesterday: 34 °F

High & Low Weather Summary for the Past Weeks

 TemperatureHumidityPressure
High41 °F (Jan 28, 3:30 PM)100% (Jan 25, 11:00 PM)30.04 "Hg (Jan 25, 11:00 PM)
Low16 °F (Jan 25, 8:30 AM)74% (Feb 6, 4:30 PM)28.82 "Hg (Feb 2, 2:30 PM)
Average32 °F90%29.46 "Hg
* Reported Jan 25 8:00 AM — Feb 9 8:30 AM, Saint-Petersburg, Weather by CustomWeather, © 2016

Note: Actual official high and low records may vary slightly from our data, if they occured in-between our weather recording intervals... More about our weather records

Advertising

Saint-Petersburg Weather History for the Previous 24 Hours

 ConditionsComfort  
Time TempWeatherWind HumidityBarometerVisibility
8:30 AM
Tue, Feb 9
36 °FOvercast.13 mph87%29.45 "HgN/A
8:00 AM36 °FOvercast.13 mph87%29.47 "HgN/A
7:30 AM36 °FLow clouds.10 mph87%29.47 "HgN/A
6:30 AM36 °FLow clouds.13 mph93%29.50 "HgN/A
6:00 AM36 °FLow clouds.10 mph93%29.50 "HgN/A
5:30 AM36 °FLow clouds.8 mph93%29.50 "HgN/A
4:30 AM36 °FLow clouds.8 mph93%29.53 "HgN/A
4:00 AM36 °FLow clouds.8 mph93%29.53 "HgN/A
3:30 AM36 °FLow clouds.8 mph93%29.56 "HgN/A
3:00 AM36 °FLow clouds.8 mph93%29.56 "HgN/A
2:30 AM36 °FOvercast.6 mph93%29.56 "HgN/A
2:00 AM36 °FOvercast.6 mph93%29.59 "HgN/A
1:00 AM36 °FPassing clouds.8 mph87%29.59 "HgN/A
12:30 AM36 °FPassing clouds.8 mph87%29.59 "HgN/A
12:00 AM36 °FMostly cloudy.6 mph93%29.59 "HgN/A
11:30 PM
Mon, Feb 8
36 °FMostly cloudy.8 mph93%29.59 "HgN/A
11:00 PM36 °FMostly cloudy.6 mph93%29.59 "HgN/A
10:30 PM36 °FMostly cloudy.8 mph87%29.59 "HgN/A
10:00 PM36 °FMostly cloudy.10 mph87%29.59 "HgN/A
9:30 PM36 °FMostly cloudy.8 mph87%29.59 "HgN/A
9:00 PM36 °FMostly cloudy.8 mph87%29.59 "HgN/A
8:30 PM36 °FPassing clouds.8 mph87%29.59 "HgN/A
8:00 PM36 °FPassing clouds.15 mph87%29.59 "HgN/A
7:30 PM34 °FPassing clouds.10 mph93%29.59 "HgN/A
7:00 PM34 °FLight rain. Passing clouds.10 mph93%29.59 "Hg4 mi
6:30 PM34 °FSprinkles. Mostly cloudy.10 mph93%29.59 "Hg2 mi
6:00 PM34 °FSprinkles. Mostly cloudy.8 mph87%29.56 "Hg6 mi
5:30 PM34 °FOvercast.10 mph87%29.56 "HgN/A
5:00 PM34 °FOvercast.10 mph87%29.56 "HgN/A
4:30 PM36 °FOvercast.10 mph81%29.59 "HgN/A
4:00 PM34 °FPartly sunny.10 mph87%29.56 "HgN/A
3:30 PM34 °FPartly sunny.8 mph87%29.56 "HgN/A
3:00 PM34 °FPartly sunny.13 mph87%29.56 "HgN/A
2:30 PM34 °FPartly sunny.10 mph87%29.59 "HgN/A
2:00 PM34 °FPartly sunny.13 mph87%29.59 "HgN/A
1:30 PM36 °FPartly sunny.8 mph81%29.59 "HgN/A
1:00 PM34 °FPartly sunny.15 mph87%29.59 "HgN/A
12:30 PM34 °FScattered clouds.13 mph87%29.59 "HgN/A
12:00 PM34 °FPartly sunny.13 mph87%29.62 "HgN/A
11:30 AM34 °FPartly sunny.13 mph87%29.62 "HgN/A
11:00 AM34 °FPartly sunny.10 mph81%29.62 "HgN/A
10:30 AM32 °FPassing clouds.10 mph93%29.65 "HgN/A
10:00 AM32 °FPassing clouds.13 mph87%29.65 "HgN/A
9:30 AM32 °FPassing clouds.13 mph93%29.65 "HgN/A
9:00 AM32 °FPassing clouds.10 mph93%29.65 "HgN/A
Weather by CustomWeather, © 2016

See weather overviewHow to use our weather pages